Regional Weather Roundup
Issued by NWS

Home | Current Version | Previous Version | Text Only | Print | Product List | Glossary Off
Versions: 1 2 3 4 5 6 7 8 9 10 11 12 13 14 15 16 17 18 19 20 21 22 23 24 25 26 27 28 29 30 31 32 33 34 35 36 37 38 39 40 41 42 43 44 45 46 47 48 49 50

000
ASUS43 KLOT 271610
RWRIL

ILLINOIS REGIONAL WEATHER ROUNDUP
NATIONAL WEATHER SERVICE CHICAGO/ROMEOVILLE IL
1000 AM CST SAT DEC 27 2014

NOTE: "FAIR" INDICATES FEW OR NO CLOUDS BELOW 12,000 FEET WITH NO
SIGNIFICANT WEATHER AND/OR OBSTRUCTIONS TO VISIBILITY.

* THESE STATIONS ARE NOT UNDER NWS QUALITY CONTROL. THEY ALSO MAY NOT
  REPORT WEATHER SUCH AS PRECIPITATION OR FOG.

ILZ001-002-007-009-015-016-024-271700-
NORTHWEST ILLINOIS

CITY           SKY/WX    TMP DP  RH WIND       PRES   REMARKS
MOLINE         CLOUDY    37  29  72 W21       30.06R WCI  26
STERLING*      CLOUDY    37  30  75 W22G32    30.04R WCI  27
SAVANNA*       CLOUDY    37  31  80 W15G23    30.02R WCI  28
$$

ILZ003-004-008-010-011-017-018-271700-
NORTH CENTRAL ILLINOIS

CITY           SKY/WX    TMP DP  RH WIND       PRES   REMARKS
ROCKFORD       CLOUDY    39  34  82 W21G35    29.97R WCI  29
FREEPORT*      CLOUDY    35  32  88 W18G26    30.00R WCI  25
ROCHELLE*      CLOUDY    38  35  87 W24       29.98F WCI  27
DE KALB*       CLOUDY    40  38  93 W24G35    29.97R FOG
PERU*          CLOUDY    42  38  87 W18G30    30.04R
$$

ILZ005-006-012>014-019>023-271700-
NORTHEAST ILLINOIS

CITY           SKY/WX    TMP DP  RH WIND       PRES   REMARKS
CHICAGO-OHARE  CLOUDY    47  45  93 SW18G31   29.96R
CHICAGO-MIDWAY CLOUDY    49  46  90 SW18G29   29.98R
AURORA         LGT RAIN  48  44  86 SW20G32   29.97R FOG
LANSING*       CLOUDY    47  46  97 SW18      30.01R FOG
JOLIET*        CLOUDY    48  46  92 SW13      29.99S
WAUKEGAN       CLOUDY    49  45  86 SW22      29.92R
DUPAGE AIRPORT LGT RAIN  49  46  90 SW17      29.95R FOG
KANKAKEE*      CLOUDY    47  46  96 SW20      30.04R FOG
WHEELING       CLOUDY    48  45  89 SW20G25   29.97R
MORRIS*        CLOUDY    48  48  98 SW18      29.99S FOG
ROMEOVILLE*    CLOUDY    48  47  99 SW15G21   29.98S FOG
NORTHERLY ISL    N/A     47  45  93 S17         N/A
$$

LMZ740>746-271700-
SOUTHERN LAKE MICHIGAN

STATION/POSITION SKY/WX   TEMP    WIND        PRES    VSBY  WAVE
                          AIR SEA DIR/SP/G                  HT/PER
                          (F)     (DEG/KT/KT) (MB)    (MI)  (FT/S)
WAUKEGAN HARBOR            48     220/ 19/ 25   N/A
HARRISON CRIB              47     210/ 24/ 28   N/A
BURNHAM HARBOR             48     200/ 14/ 18   N/A
CALUMET HARBOR             47     200/ 14/ 23 1014.2R
MICHIGAN CITY              46     150/ 15/ 20   N/A
$$

ILZ025>027-034>036-040-047-049-050-058-095>099-271700-
WEST-CENTRAL ILLINOIS

CITY           SKY/WX    TMP DP  RH WIND       PRES   REMARKS
QUINCY         CLOUDY    38  30  73 W15       30.15R WCI  29
GALESBURG*     CLOUDY    37  32  84 W22G28    30.12R WCI  25
MACOMB*        CLOUDY    37  33  86 W18       30.17R WCI  27
JACKSONVILLE*  CLOUDY    43  37  79 W15G22    30.15R
PITTSFIELD*    CLOUDY    40  32  73 W20       30.18R
$$

ILZ028>032-037-038-041>044-048-051>054-059>061-271700-
CENTRAL ILLINOIS

CITY           SKY/WX    TMP DP  RH WIND       PRES   REMARKS
PONTIAC        CLOUDY    49  48  97 SW17G23   30.04R FOG
BLOOMINGTON    LGT RAIN  48  48 100 SW17      30.06R FOG
DECATUR        CLOUDY    48  47  96 SW13      30.11R FOG
PEORIA         CLOUDY    42  35  76 W16G26    30.10R
LACON*         CLOUDY    39  35  85 W9G22     30.06R WCI  32
LINCOLN*       LGT RAIN  47  45  92 NW8G23    30.10R
SPRINGFIELD    CLOUDY    45  41  86 W14G23    30.13R
TAYLORVILLE    CLOUDY    46  45  93 SW9G16    30.12R
$$

ILZ033-039-045-046-055>057-062-063-271700-
EAST-CENTRAL ILLINOIS

CITY           SKY/WX    TMP DP  RH WIND       PRES   REMARKS
CHAMPAIGN      FOG       47  45  93 SW16      30.10R VSB 1
DANVILLE*      CLOUDY    46  45  99 SW15      30.06R FOG
RANTOUL*       CLOUDY    48  48  97 SW15      30.09R FOG
MATTOON        CLOUDY    46  46 100 S14G21    30.12R FOG
PARIS*         CLOUDY    46  46 100 S13G21    30.11R FOG
$$

ILZ079-100>102-271700-
SOUTHWEST ILLINOIS

CITY           SKY/WX    TMP DP  RH WIND       PRES   REMARKS
ALTON          CLOUDY    48  46  93 W15       30.16R
BELLEVILLE     CLOUDY    50  49  99 W8        30.13S
CAHOKIA*       LGT RAIN  47  44  90 NW18      30.16R FOG
SPARTA*        CLOUDY    47  47  97 S7        30.15R
$$

ILZ064>066-069>071-074>076-080>082-084>086-088>090-092>094-271700-
SOUTH-CENTRAL ILLINOIS

CITY           SKY/WX    TMP DP  RH WIND       PRES   REMARKS
CARBONDALE     CLOUDY    49  47  93 S8        30.14F
CAIRO*         CLOUDY   N/A N/A N/A SE9       30.17F FOG
EFFINGHAM*     CLOUDY    48  46  91 S10       30.16R FOG
MARION         CLOUDY    50  48  93 S8        30.16F
MT. VERNON     CLOUDY    48  45  87 S9        30.16R
CENTRALIA*     CLOUDY    49  46  90 S7        30.14S
SALEM*         CLOUDY    50  48  92 S10       30.15R
METROPOLIS*    CLOUDY    49  49 100 CALM      30.19R
$$

ILZ067-068-072-073-078-083-087-091-271700-
SOUTHEAST ILLINOIS

CITY           SKY/WX    TMP DP  RH WIND       PRES   REMARKS
LAWRENCEVILLE  CLOUDY    47  46  97 S9        30.17R FOG
FLORA*         CLOUDY    47  47  97 S9        30.16R FOG
FAIRFIELD*     CLOUDY    48  47  98 S9        30.16R FOG
HARRISBURG*    DRIZZLE   49  49 100 S6        30.18F
ROBINSON*      CLOUDY    46  46  98 S12       30.16S FOG
CARMI*         LGT RAIN  49  49 100 S7        30.18R
$$

ABBREVIATIONS USED IN REMARKS
   TC - TEMPERATURE IN CELSIUS
  WCI - WIND CHILL INDEX
   HX - HEAT INDEX
  VSB - VISIBILITY
$$




USA.gov is the U.S. government's official web portal to all federal, state and local government web resources and services.